FW2417 Weather Reports


time (UTC)temp
C
wind
direction
speed
KPH
gust
KPH
rain 1hr
cm
rain 24hr
cm
rain mn
cm
humidity
%
barometer
mb
20260507144614 22 303 3.2 25.7 0.00 0.00 0.00 46 1010.2
20260507143008 22 230 3.2 17.7 0.00 0.00 0.00 47 1010.3
20260507141508 22 341 4.8 24.1 0.00 0.00 0.00 48 1010.4
20260507140114 22 242 3.2 16.1 0.00 0.00 0.00 49 1010.5
20260507134610 22 236 9.7 24.1 0.00 0.00 0.00 47 1010.7
20260507133108 22 210 4.8 17.7 0.00 0.00 0.00 47 1010.9
20260507131603 21 300 4.8 22.5 0.00 0.00 0.00 50 1010.9
20260507124606 22 330 3.2 27.4 0.00 0.00 0.00 49 1011.3
20260507123100 22 215 17.7 27.4 0.00 0.00 0.00 47 1011.3
20260507121601 22 250 12.9 22.5 0.00 0.00 0.00 48 1011.4
20260507120100 22 266 11.3 27.4 0.00 0.00 0.00 47 1011.4
20260507114559 22 233 6.4 25.7 0.00 0.00 0.00 48 1011.4
20260507113051 22 215 1.6 14.5 0.00 0.00 0.00 47 1011.6
20260507111559 22 204 3.2 16.1 0.00 0.00 0.00 45 1011.8
20260507110017 21 239 4.8 17.7 0.00 0.00 0.00 45 1011.8
20260507104516 21 246 4.8 11.3 0.00 0.00 0.00 48 1011.9
20260507103009 21 229 3.2 12.9 0.00 0.00 0.00 49 1012.0
20260507101512 21 248 0.0 19.3 0.00 0.00 0.00 50 1012.2
20260507100113 20 204 3.2 20.9 0.00 0.00 0.00 52 1012.3
20260507094614 20 231 1.6 19.3 0.00 0.00 0.00 52 1012.1
20260507093103 20 212 4.8 11.3 0.00 0.00 0.00 53 1012.2
20260507091606 20 203 6.4 12.9 0.00 0.00 0.00 51 1012.3
20260507090112 19 134 1.6 9.7 0.00 0.00 0.00 56 1012.3
20260507084601 18 240 1.6 8.0 0.00 0.00 0.00 60 1012.3
20260507083052 17 238 1.6 11.3 0.00 0.00 0.00 62 1012.3
20260507081547 17 240 1.6 11.3 0.00 0.00 0.00 61 1012.2
20260507080012 17 165 1.6 8.0 0.00 0.00 0.00 62 1012.1
20260507074510 17 250 1.6 8.0 0.00 0.00 0.00 63 1012.0
20260507073005 17 212 0.0 1.6 0.00 0.00 0.00 62 1012.0
20260507071502 16 225 0.0 3.2 0.00 0.00 0.00 62 1011.9
20260507070112 15 86 0.0 1.6 0.00 0.00 0.00 71 1011.7
20260507064623 13 86 0.0 0.0 0.00 0.00 0.00 73 1011.7
20260507063101 12 56 0.0 0.0 0.00 0.00 0.00 77 1011.6
20260507061606 12 329 0.0 0.0 0.00 0.00 0.00 80 1011.5
20260507060049 12 356 0.0 1.6 0.00 0.00 0.00 76 1011.4
20260507054544 13 166 0.0 0.0 0.00 0.00 0.00 70 1011.1
20260507053045 13 158 0.0 1.6 0.00 0.00 0.00 72 1010.9
20260507051541 13 146 0.0 0.0 0.00 0.00 0.00 74 1010.7
20260507050011 13 146 0.0 1.6 0.00 0.00 0.00 74 1010.6
20260507044512 13 148 0.0 1.6 0.00 0.00 0.00 76 1010.4
20260507043009 13 143 0.0 1.6 0.00 0.00 0.00 76 1010.2
20260507041531 13 174 0.0 1.6 0.00 0.00 0.00 77 1010.3
20260507040008 13 207 0.0 1.6 0.00 0.00 0.00 76 1010.4
20260507034544 13 198 0.0 3.2 0.00 0.00 0.00 78 1010.4
20260507033118 13 218 0.0 4.8 0.00 0.00 0.00 78 1010.5
20260507031615 13 202 0.0 4.8 0.00 0.00 0.00 80 1010.3
20260507030108 13 224 0.0 4.8 0.00 0.00 0.00 81 1010.2
20260507024615 14 208 0.0 4.8 0.00 0.00 0.00 80 1010.3
20260507023115 14 211 0.0 4.8 0.00 0.00 0.00 80 1010.3
20260507021501 14 207 1.6 6.4 0.00 0.00 0.00 80 1010.3
20260507020110 14 212 1.6 6.4 0.00 0.00 0.00 81 1010.3
20260507014609 14 225 1.6 8.0 0.00 0.00 0.00 81 1010.5
20260507013114 14 214 0.0 4.8 0.00 0.00 0.00 81 1010.5
20260507011600 14 225 0.0 6.4 0.00 0.00 0.00 81 1010.7
20260507010043 14 207 0.0 4.8 0.00 0.00 0.00 81 1010.9
20260507004546 15 221 0.0 4.8 0.00 0.00 0.00 80 1011.0
20260507003037 15 212 0.0 6.4 0.00 0.00 0.00 80 1011.1
20260507001544 15 236 0.0 4.8 0.00 0.00 0.00 79 1011.1
20260507000117 15 243 0.0 6.4 0.00 0.00 0.00 78 1011.2
20260506234615 15 208 0.0 8.0 0.00 0.00 0.00 77 1011.2
20260506233116 15 215 3.2 16.1 0.00 0.00 0.00 76 1011.2
20260506231616 15 236 1.6 14.5 0.00 0.00 0.00 74 1011.3
20260506230113 15 205 0.0 6.4 0.00 0.00 0.00 73 1011.4
20260506224612 15 245 0.0 6.4 0.00 0.00 0.00 73 1011.4
20260506223127 16 229 0.0 12.9 0.00 0.00 0.00 74 1011.2
20260506221604 16 217 1.6 8.0 0.00 0.00 0.00 72 1011.4
20260506220051 16 227 0.0 6.4 0.00 0.00 0.00 70 1011.3
20260506214540 16 228 1.6 12.9 0.00 0.00 0.00 68 1011.3
20260506213005 16 231 1.6 14.5 0.00 0.00 0.00 67 1011.3
20260506211501 17 249 1.6 16.1 0.00 0.00 0.00 66 1011.2
20260506210137 17 232 1.6 14.5 0.00 0.00 0.00 63 1011.0
20260506204606 17 248 1.6 14.5 0.00 0.00 0.00 61 1010.7
20260506203104 18 248 1.6 17.7 0.00 0.00 0.00 58 1010.6
20260506201602 18 252 3.2 14.5 0.00 0.00 0.00 55 1010.4
20260506200137 18 240 1.6 12.9 0.00 0.00 0.00 54 1010.2
20260506194604 19 233 1.6 12.9 0.00 0.00 0.00 52 1010.0
20260506193051 20 214 3.2 12.9 0.00 0.00 0.00 49 1009.8
20260506191550 20 304 3.2 16.1 0.00 0.00 0.00 46 1009.6
20260506190040 21 245 1.6 17.7 0.00 0.00 0.00 44 1009.4
20260506184540 22 238 3.2 16.1 0.00 0.00 0.00 40 1009.3
20260506183009 23 240 0.0 4.8 0.00 0.00 0.00 33 1009.1
20260506181618 25 240 0.0 1.6 0.00 0.00 0.00 30 1008.9
20260506180108 25 242 0.0 6.4 0.00 0.00 0.00 30 1009.1
20260506174609 25 18 0.0 8.0 0.00 0.00 0.00 30 1009.2
20260506173124 25 238 0.0 4.8 0.00 0.00 0.00 28 1009.2
20260506171603 25 242 0.0 6.4 0.00 0.00 0.00 30 1009.4
20260506170057 25 249 0.0 9.7 0.00 0.00 0.00 29 1009.4
20260506164602 25 239 1.6 11.3 0.00 0.00 0.00 30 1009.5
20260506163107 25 56 0.0 9.7 0.00 0.00 0.00 27 1009.6
20260506161559 25 118 3.2 9.7 0.00 0.00 0.00 27 1009.7
20260506154547 25 203 0.0 4.8 0.00 0.00 0.00 29 1009.9
20260506153045 25 337 0.0 6.4 0.00 0.00 0.00 30 1010.1
20260506151546 24 20 0.0 3.2 0.00 0.00 0.00 32 1010.2
20260506150040 25 226 0.0 14.5 0.00 0.00 0.00 32 1010.5